Vertical_Velocity
-2 -1 -1 -0 0 0 -0 0 -1 -0 -0 -2 -2 -1 -1 -1 0 -0 -2 -2 -1 -1 -2 -3 -1 3 -1 -0 3 4 -2 -0 -3 1 -2 3 -2 2 1 -4 3 1 -1 -1 -2
-1 1 1 0 1 1 -0 -1 -1 -1 -1 1 0 1 0 0 -2 -2 -3 -3 -3 -3 0 4 -1 2 -3 1 -1 -3 -0 -3 -0 0 -1 0 -1 -2 -1 0 1 0 2 1 2
-0 -1 0 1 -1 -0 1 1 -2 -1 0 -1 -1 -1 -0 -1 -2 -2 -1 1 -1 -4 -0 1 0 1 3 5 0 -0 -3 -0 1 1 1 -1 0 1 -3 0 -5 -10 -4 -0 0
0 -1 -1 -1 -1 1 -1 -0 1 2 0 2 0 -1 -1 -1 -2 1 1 0 0 1 -5 -3 0 -0 1 0 0 1 1 -1 0 -1 -2 -0 1 0 -0 -4 -3 -2 -1 -2 -1
-1 0 -0 -0 -1 -1 1 1 0 -0 -1 -1 1 0 1 2 -4 1 -1 -1 -3 3 1 -3 -1 0 0 1 1 0 -1 -0 -1 -1 -1 0 0 -5 -3 -1 -3 0 2 -2 -1
-0 -1 -1 -0 -2 -2 -3 -1 1 -1 -1 -1 -2 -2 0 -1 -3 0 2 1 2 -1 -2 -1 -1 1 -0 0 0 -0 0 -1 1 -0 0 -0 -1 2 -1 4 3 1 -0 -1 -5
0 -1 1 0 1 1 -0 -1 -2 -0 -0 1 2 -0 -2 -13 -2 -3 -4 -5 -2 -0 2 2 1 1 1 -0 1 1 -2 0 0 -1 -1 -3 -1 -3 -0 3 -1 2 2 4 2
-1 -2 -2 -4 -2 -1 -1 -3 0 -3 -5 0 -1 1 -8 1 -2 -1 -1 -3 0 -0 3 1 1 0 -0 0 -0 -0 1 -0 -1 1 -0 -3 -9 -1 1 -3 1 0 0 -0 1
-1 1 -1 -0 -3 -3 -1 -0 -2 0 4 -2 -0 2 -5 1 -1 1 2 1 1 -1 -1 4 2 0 1 -2 -3 -0 -1 1 -3 -1 -1 -1 -4 0 7 3 1 2 1 1 4
-0 -0 -1 -2 -5 -3 -5 -4 -1 1 -0 0 3 6 3 -1 0 1 -2 -3 -1 -1 0 1 1 -1 -0 -2 -6 -3 1 -0 -1 -2 2 1 -7 -0 -1 1 -4 -1 1 1 1
-1 -3 -4 1 -1 -4 -10 -15 -17 -1 -0 -2 8 6 -1 -3 -1 -1 4 2 3 2 0 1 -4 -3 -5 -2 0 0 1 0 -1 -1 1 -3 -1 -3 -3 5 2 1 1 1 -1
-3 -4 -4 -2 -0 -2 1 -6 1 1 -16 15 3 3 -2 1 1 -2 -1 0 1 -1 1 -5 -3 -2 -0 0 -0 0 0 -3 -0 -0 1 -1 -8 -4 -0 -9 -9 -4 0 -1 4
-2 -2 -7 -6 -3 -6 -3 1 1 1 3 -8 2 0 -2 0 -0 -0 1 1 -1 1 -0 -4 -2 -0 -0 0 1 -1 -0 -0 -0 -1 -0 0 -5 1 -4 4 4 4 4 8 -2
1 -1 -7 -10 4 -2 -2 0 3 4 -1 -9 -1 0 -0 0 0 0 -1 -2 0 -2 -0 -3 -0 -1 0 -0 -3 1 -0 -0 0 -2 -3 -2 -13 2 -1 -2 2 1 3 2 -0
-3 -1 -5 8 0 -2 3 0 4 -0 -4 -9 0 -0 -0 2 2 1 -0 -1 -0 -1 -4 -14 0 1 1 -4 -0 -6 -0 -1 -1 -0 -1 -0 3 -8 0 -2 -2 -0 1 2 -1
-3 3 -6 5 -1 -1 -3 -1 3 -12 -18 1 -0 0 0 1 -0 1 1 1 -0 1 1 -1 -0 0 -4 1 -0 -1 -0 -0 -1 -1 2 -6 -3 -10 -3 -7 -2 -1 3 1 2
-8 -3 1 3 -2 5 1 -2 -10 -5 -16 -1 0 0 0 -1 1 1 -0 0 -4 -0 -0 0 -1 -0 -1 -2 -1 0 -1 -2 -4 -4 -7 0 1 -16 -3 -1 -0 -1 1 1 3
-6 2 1 5 -2 2 -0 -4 2 -7 -2 -1 -0 1 -1 -0 -1 1 -0 -1 1 1 -0 0 -5 -2 -1 -2 -6 -2 -2 -4 -3 -2 -4 -2 -5 -21 -1 0 1 1 2 6 5
-5 -9 -4 -1 1 3 3 0 -8 -1 -0 0 -6 1 -1 1 2 2 -0 -1 -1 -3 -5 1 -2 1 -1 0 -2 -3 1 -2 -2 -1 -2 -5 -10 -7 -0 -1 -1 0 2 3 6
-8 -6 -2 -3 0 -0 -0 -4 -1 2 -1 -2 1 4 1 -1 1 1 -0 -1 1 0 1 -1 -2 -0 0 -2 1 -3 0 -4 -2 -1 -1 -4 -2 -8 -4 -2 -0 -1 -1 0 2
-4 -6 3 2 -1 2 -1 -5 -0 1 -2 1 -0 -1 1 1 2 -1 -3 -0 -1 -0 -1 1 -0 -1 -2 -1 -2 -2 -0 -0 -2 0 0 -1 -10 -5 -2 -1 -2 -1 -2 -3 -2
0 -3 4 9 -6 0 -0 -2 5 -0 0 -0 1 0 1 0 0 1 -0 0 -2 -4 -2 -0 -1 -0 -8 2 -0 -2 -2 -2 -1 -3 -1 1 -20 -1 -1 -0 -0 -1 -3 -2 -2
-2 -4 5 10 -1 -1 -4 -2 2 -1 1 -1 0 0 0 0 0 1 -0 -6 1 -1 -2 -3 -2 -1 -0 -1 -2 -0 -0 -1 -2 0 -3 3 -20 -0 -0 -0 1 -1 1 3 2
3 -2 1 3 5 3 0 -1 -2 -2 -1 0 -0 2 1 1 0 -3 -1 -1 -1 -2 -1 -2 0 -1 -1 -5 0 1 1 -0 -1 2 -4 -10 -13 -9 -1 -0 1 -1 -2 -4 -3
0 -3 11 -4 -8 -0 1 2 -1 -2 0 1 1 1 0 3 0 -1 -1 -0 -0 -0 1 -2 -0 2 -3 -1 2 0 0 -2 3 -11 2 -22 1 -12 0 -2 -4 -1 2 1 0
-1 3 -6 -5 -2 1 -1 -2 3 -8 6 -5 1 -1 2 4 -4 -3 8 -0 -1 1 -0 -0 -3 1 -1 -1 2 1 -1 0 -0 -2 3 3 -13 0 -6 2 1 -2 -0 1 1
2 -5 7 -4 -1 4 -4 -2 -2 4 -12 6 4 6 1 -3 -0 -3 -1 -2 -2 1 -1 1 0 1 -5 -0 -1 -4 -7 -1 -1 -0 -3 2 -23 -1 -2 -0 0 0 -1 -1 3
Height
1539 1536 1533 1530 1527 1523 1520 1517 1514 1511 1509 1508 1507 1505 1502 1500 1498 1496 1495 1496 1495 1494 1493 1492 1493 1494 1494 1495 1495 1495 1499 1499 1487 1481 1483 1484 1486 1490 1493 1494 1497 1499 1499 1501 1504
1540 1537 1534 1530 1526 1523 1519 1516 1514 1512 1509 1506 1504 1502 1500 1497 1495 1492 1492 1492 1492 1491 1491 1491 1491 1492 1493 1493 1494 1495 1502 1491 1483 1482 1484 1484 1486 1488 1493 1496 1498 1498 1498 1500 1503
1541 1538 1534 1530 1526 1522 1519 1515 1512 1510 1508 1505 1503 1500 1498 1496 1493 1489 1490 1491 1490 1489 1489 1489 1490 1491 1492 1490 1489 1489 1492 1485 1485 1485 1485 1486 1488 1489 1489 1496 1490 1493 1498 1501 1503
1541 1538 1534 1530 1526 1522 1518 1515 1511 1508 1504 1503 1500 1498 1496 1495 1497 1489 1488 1488 1487 1487 1488 1489 1490 1489 1488 1488 1485 1487 1482 1482 1483 1484 1484 1485 1485 1486 1486 1483 1484 1487 1492 1497 1500
1541 1537 1533 1529 1525 1521 1517 1513 1508 1505 1502 1499 1497 1495 1495 1492 1488 1486 1486 1486 1485 1485 1484 1485 1487 1488 1487 1483 1482 1483 1482 1482 1481 1481 1482 1484 1481 1480 1477 1478 1480 1483 1487 1491 1496
1542 1538 1533 1529 1525 1520 1516 1511 1506 1502 1498 1496 1495 1493 1492 1493 1485 1485 1484 1484 1483 1483 1483 1483 1484 1485 1485 1482 1482 1480 1480 1480 1479 1479 1479 1480 1481 1480 1471 1473 1475 1476 1479 1482 1487
1540 1536 1532 1527 1523 1519 1514 1509 1504 1499 1495 1493 1491 1489 1489 1486 1482 1482 1482 1481 1481 1480 1480 1481 1482 1483 1483 1482 1482 1480 1482 1480 1477 1477 1478 1478 1480 1472 1470 1471 1473 1476 1478 1480 1483
1540 1535 1531 1526 1521 1516 1512 1507 1503 1497 1493 1491 1489 1487 1483 1479 1479 1479 1479 1479 1478 1478 1478 1478 1479 1481 1481 1482 1482 1482 1482 1483 1472 1474 1477 1480 1471 1460 1462 1465 1470 1473 1476 1479 1483
1536 1532 1527 1523 1519 1514 1509 1504 1499 1495 1491 1489 1487 1486 1481 1477 1477 1477 1477 1477 1477 1477 1478 1478 1478 1479 1481 1484 1489 1485 1486 1482 1473 1472 1475 1477 1466 1460 1461 1464 1467 1468 1470 1475 1477
1535 1531 1526 1522 1516 1511 1507 1502 1496 1491 1490 1487 1485 1487 1479 1476 1476 1474 1473 1474 1475 1476 1478 1478 1478 1480 1483 1486 1490 1482 1483 1472 1468 1470 1473 1475 1463 1462 1463 1462 1461 1463 1465 1469 1472
1533 1528 1524 1520 1514 1509 1503 1498 1496 1492 1489 1486 1479 1477 1476 1476 1474 1473 1473 1471 1472 1473 1475 1474 1480 1480 1471 1470 1471 1471 1471 1471 1465 1466 1469 1465 1454 1453 1456 1457 1455 1453 1455 1459 1464
1531 1526 1522 1518 1513 1508 1503 1502 1502 1501 1486 1472 1470 1471 1472 1472 1471 1470 1472 1473 1472 1472 1473 1480 1480 1467 1468 1469 1469 1470 1469 1470 1467 1468 1469 1463 1447 1445 1445 1436 1433 1439 1443 1447 1455
1528 1523 1518 1515 1511 1508 1503 1503 1499 1496 1490 1470 1467 1468 1470 1471 1470 1469 1471 1468 1469 1468 1469 1474 1465 1465 1467 1469 1471 1471 1470 1467 1469 1469 1466 1467 1439 1435 1423 1423 1426 1426 1429 1434 1436
1525 1520 1517 1512 1511 1505 1503 1501 1497 1493 1494 1471 1469 1469 1470 1469 1469 1466 1466 1469 1469 1467 1467 1468 1466 1466 1468 1469 1469 1470 1471 1471 1471 1474 1474 1463 1442 1421 1416 1414 1412 1417 1421 1428 1436
1523 1518 1513 1512 1507 1504 1504 1500 1496 1494 1505 1469 1469 1469 1469 1472 1469 1467 1467 1468 1465 1464 1467 1460 1467 1468 1469 1466 1466 1466 1471 1470 1470 1474 1478 1471 1475 1418 1417 1413 1415 1412 1417 1422 1429
1519 1515 1511 1508 1505 1502 1501 1499 1496 1502 1497 1466 1466 1466 1468 1467 1466 1465 1466 1466 1467 1466 1463 1463 1464 1463 1462 1467 1467 1471 1473 1475 1477 1479 1480 1459 1458 1441 1428 1416 1416 1411 1412 1417 1424
1515 1511 1508 1504 1501 1499 1497 1497 1504 1505 1462 1466 1465 1467 1467 1464 1463 1464 1465 1467 1468 1464 1463 1463 1463 1463 1463 1468 1470 1471 1472 1473 1480 1501 1454 1447 1464 1425 1415 1418 1417 1413 1414 1419 1424
1511 1507 1502 1498 1497 1498 1497 1498 1499 1477 1468 1462 1462 1462 1464 1459 1459 1461 1463 1465 1458 1457 1462 1457 1447 1465 1462 1461 1460 1470 1466 1457 1457 1461 1454 1463 1446 1414 1421 1418 1417 1416 1417 1419 1424
1506 1501 1497 1496 1496 1497 1498 1502 1490 1476 1466 1467 1464 1464 1459 1460 1461 1460 1462 1456 1447 1452 1457 1450 1445 1459 1459 1459 1461 1464 1466 1460 1465 1465 1479 1445 1427 1414 1421 1421 1420 1421 1422 1425 1429
1502 1496 1493 1494 1494 1496 1497 1492 1482 1471 1471 1470 1471 1465 1464 1463 1462 1463 1457 1451 1452 1453 1454 1448 1457 1458 1460 1459 1460 1461 1462 1462 1466 1460 1454 1448 1438 1416 1417 1422 1425 1427 1426 1428 1431
1504 1498 1493 1492 1493 1494 1494 1490 1477 1475 1474 1475 1473 1471 1468 1471 1466 1460 1457 1460 1463 1461 1460 1459 1460 1465 1462 1463 1456 1468 1462 1465 1460 1460 1451 1454 1436 1426 1428 1424 1421 1423 1425 1427 1430
1504 1503 1494 1492 1495 1490 1490 1482 1476 1474 1474 1475 1473 1472 1472 1473 1469 1465 1459 1462 1462 1459 1468 1472 1470 1463 1457 1460 1458 1458 1460 1460 1462 1462 1460 1456 1426 1420 1419 1419 1418 1419 1422 1425 1428
1506 1499 1491 1492 1495 1492 1485 1481 1477 1476 1475 1478 1476 1475 1477 1477 1473 1466 1463 1457 1458 1458 1458 1465 1463 1456 1451 1461 1461 1460 1452 1448 1451 1463 1454 1452 1417 1417 1418 1418 1419 1422 1423 1424 1427
1509 1501 1493 1490 1488 1488 1487 1484 1483 1481 1480 1479 1476 1476 1475 1473 1471 1465 1464 1455 1454 1455 1458 1462 1461 1453 1448 1443 1438 1450 1451 1447 1448 1455 1438 1429 1409 1401 1410 1417 1419 1420 1421 1423 1425
1512 1505 1502 1500 1493 1490 1490 1488 1485 1485 1480 1477 1475 1473 1472 1467 1467 1462 1458 1454 1452 1452 1457 1461 1459 1454 1444 1441 1442 1442 1441 1434 1437 1435 1434 1410 1417 1399 1410 1415 1413 1411 1415 1419 1424
1514 1511 1503 1501 1496 1492 1488 1485 1482 1479 1479 1475 1476 1470 1468 1464 1460 1454 1456 1450 1448 1456 1458 1459 1455 1450 1447 1440 1441 1441 1432 1424 1426 1423 1429 1422 1416 1402 1407 1406 1408 1409 1412 1415 1419
1510 1509 1506 1498 1494 1494 1489 1482 1480 1482 1475 1473 1471 1468 1465 1460 1458 1456 1452 1449 1446 1446 1451 1454 1453 1449 1434 1434 1437 1440 1422 1416 1420 1414 1415 1418 1404 1406 1406 1407 1407 1409 1410 1413 1417